www.pogodaiklimat.ru

Погода и климат >> Архив погоды >> Мексика >> Monclova


ПОГОДА в Monclova

  • Прогноз погоды в Monclova
  • Монитор погоды в Monclova
  • Климат города

АРХИВ ПОГОДЫ в Monclova

Время (UTC), дата Ветер
(напр.,м/с)
 
Видим.   Явления Облачность Т
(С)
Тd
(С)
f
(%)
Тe
(С)
Тes
(С)
Комфортность P
(гПа)
Po
(гПа)
Тmin
(С)
Tmax
(С)
R
(мм)
R24
(мм)
S
(см)
12 15.11 Ю 1 4000 м ясно +16.0 +13.8 87 +17 +17 1014.7 946.1 +15.5 +27.4
15 15.11 Ю 2 12 км ясно +17.7 +14.1 79 +18 +20 1016.6 946.5
18 15.11 СВ 2 12 км ясно +28.0 +16.3 49 +31 +41 душно 1015.6 945.9 +15.0 +28.8
21 15.11 СВ 2 12 км ясно +31.8 +13.1 32 +33 +39 жарко 1012.3 943.5
00 16.11 СВ 2 12 км ясно +26.8 +16.9 55 +31 +31 душно 1013.1 944.9 +15.0 +32.5
03 16.11 В 2 4000 м ясно +22.0 +15.2 65 +26 +26 душно 1016.7 948.5
06 16.11 Ю 1 4000 м ясно +19.2 +15.1 77 +22 +22 комфорт 1018.0 949.8 +15.0 +32.5
09 16.11 Ю 1 4000 м ясно +16.0 +12.3 79 +17 +17 1016.7 948.2
12 16.11 Ю 2 4000 м ясно +15.0 +12.1 83 +15 +15 1018.0 947.4 +14.6
15 16.11 ЮВ 1 12 км ясно +17.2 +12.4 73 +18 +21 1019.7 948.9
18 16.11 СЗ 1 12 км ясно +23.8 +14.4 56 +26 +38 жарко 1019.4 948.9 +14.2 +24.5
21 16.11 С 2 12 км ясно +27.0 +14.4 46 +29 +36 жарко 1015.7 946.0
00 17.11 СВ 2 12 км ясно +26.4 +17.8 59 +31 +31 душно 1014.1 945.2 +14.2 +28.5
03 17.11 ЮВ 1 4000 м ясно +21.0 +15.9 73 +26 +26 душно 1015.7 947.1
09 17.11 ЮВ 1 4000 м ясно +16.8 +15.3 91 +18 +18 1015.0 946.6
12 17.11 Ю 2 4000 м ясно +18.0 +15.6 86 +19 +19 1015.7 945.5 +16.4 +28.5
15 17.11 Ю 1 12 км ясно +18.0 +13.3 74 +19 +22 1017.0 946.7
18 17.11 ЮВ 1 12 км ясно +27.2 +16.1 51 +31 +42 душно 1015.1 945.3 +16.2 +28.0
21 17.11 С 1 12 км ясно +31.8 +12.3 30 +32 +40 жарко 1011.6 942.8
00 18.11 СВ 1 12 км ясно +30.0 +12.7 35 +31 +31 жарко 1009.5 941.6 +16.2 +33.0
03 18.11 Ю 2 4000 м ясно +22.8 +17.5 72 +28 +28 душно 1011.6 944.0
06 18.11 Ю 1 4000 м ясно +20.8 +17.6 82 +26 +26 душно 1011.9 944.1 +16.2 +33.0
09 18.11 ЮЗ 1 4000 м ясно +19.0 +15.0 78 +21 +21 комфорт 1012.0 944.2
12 18.11 Ю 2 4000 м ясно +18.2 +14.7 80 +19 +19 1012.0 943.9 +17.7 +33.0
15 18.11 Ю 3 12 км ясно +20.2 +9.2 49 +22 +23 комфорт 1013.0 943.4
18 18.11 СЗ 2 12 км ясно +32.4 +6.7 20 +31 +40 жарко 1012.4 943.3 +16.0 +33.2
21 18.11 СВ 3 12 км ясно +30.8 +10.0 28 +31 +36 жарко 1011.4 943.1
00 19.11 СВ 3 12 км ясно +25.6 +7.5 32 +26 +26 жарко 1015.0 946.9 +16.0 +34.1
03 19.11 СВ 2 4000 м ясно +19.2 +5.1 39 +20 +20 1022.2 953.8
09 19.11 СВ 2 4000 м ясно +14.4 +1.7 42 +14 +14 1025.0 955.9
12 19.11 СВ 2 4000 м ясно +11.4 +1.1 49 +11 +11 1028.7 956.7 +11.0
15 19.11 СВ 1 12 км ясно +11.4 +1.1 49 +12 +14 1031.9 959.5
18 19.11 С 2 12 км ясно +15.4 +0.4 36 +15 +25 1028.9 956.8 +10.0 +16.0
21 19.11 СВ 2 12 км ясно +17.4 +0.8 33 +18 +24 1025.0 953.3
00 20.11 СВ 2 12 км 8/0 2000 м
[Ac As]
+15.0 +15 +15 1023.4 951.9 +10.0 +18.2
03 20.11 СВ 1 4000 м ясно +12.6 +0.1 42 +13 +13 1023.8 952.5
06 20.11 ЮЗ 1 4000 м ясно +11.0 +1.1 50 +11 +11 1023.1 951.7 +10.0 +18.2
09 20.11 ЮЗ 2 4000 м ясно +10.2 +1.6 55 +9 +9 1020.5 951.7
12 20.11 ЮЗ 1 4000 м 6/6 300 м
[Frnb]
+9.0 +4.3 72 +9 +9 1024.6 952.0 0.0
15 20.11 ЮВ 1 12 км ясно +10.0 +3.3 63 +10 +12 1023.4 950.8
18 20.11 СВ 1 12 км ясно +17.2 +3.7 41 +18 +29 1022.3 950.1 +7.0 +18.0
21 20.11 СВ 1 12 км ясно +20.6 +6.3 39 +23 +30 комфорт 1018.0 946.6
00 21.11 СВ 1 12 км ясно +20.4 +6.5 40 +22 +22 комфорт 1015.0 944.5 +7.0 +21.7
03 21.11 В 1 4000 м ясно +14.8 +8.2 65 +15 +15 1016.0 945.9
06 21.11 Ю 1 4000 м ясно +13.0 +7.7 70 +13 +13 1015.5 945.3 +7.0 +21.7
09 21.11 Ю 1 4000 м ясно +11.4 +6.3 71 +11 +11 1014.8 944.6
12 21.11 Ю 2 4000 м ясно +10.0 +6.3 78 +9 +9 1013.8 943.6 +9.5 +21.7
15 21.11 Ю 2 12 км 9/0 2000 м
[Ac und]
+13.2 +5.0 58 +13 +13 1015.0 943.5
18 21.11 ЮЗ 1 12 км ясно +25.0 +7.6 33 +25 +36 комфорт 1014.4 943.5 +9.5 +26.2
21 21.11 С 2 12 км 9/0
[Ci]
+30.0 +2.8 18 +28 +33 жарко 1010.0 940.3
00 22.11 СВ 2 12 км 4/0
[Ci]
+26.4 +4.8 25 +26 +26 жарко 1010.5 941.8 +9.5 +31.0
03 22.11 С 2 4000 м ясно +20.2 +4.5 36 +21 +21 комфорт 1015.1 945.3
06 22.11 С 2 4000 м ясно +17.6 +5.3 44 +18 +18 1019.4 949.4 +9.5 +31.0

 

Местоположение метеостанции Monclova (Мексика): широта 26.88 долгота -101.40 высота над уровнем моря 615 м.

В архиве по умолчанию представлена погода в Monclova за последнюю неделю. Архивные данные за месяц целиком и за предыдущие месяцы, начиная с января 2011 года, Вы можете получить, выбрав интересующий диапазон дат из раскрывающегося списка и нажав кнопку "Ввод!".

Внимание! Время в таблицах - всемирное. Для получения местного времени необходимо прибавить поправку, которая в Monclova равна -6 ч.

Смотрите также архив погоды в соседних городах и на ближайших метеорологических станциях:

Погода в Monterrey (Мексика) (168 км)
Погода в Saltillo (Мексика) (173 км)
Погода в Piedras Negras (Мексика) (221 км)
Погода в Torreon (Мексика) (250 км)
Погода в Hidalgo del Parral (Мексика) (417 км)
Погода в Ciudad Victoria (Мексика) (418 км)
Погода в Sombrerete (Мексика) (424 км)
Погода в Durango (Мексика) (450 км)
Погода в Tepehuanes (Мексика) (464 км)
Погода в Zacatecas (Мексика) (469 км)

Пояснения к столбцам:

Ветер - указаны скорость ветра в м/с - средняя за 10 мин, порывы в срок и между сроками (в фигурных скобках) и направление, откуда дует ветер: С - северный, СВ - северо-восточный, В - восточный, ЮВ - юго-восточный, Ю - южный, ЮЗ - юго-западный, З - западный, СЗ - северо-западный.
Видимость - горизонтальная дальность видимости в метрах или километрах. При видимости от 1 до 10 км при отсутствии осадков обычно наблюдается дымка, при ухудшении видимости до 1 км и менее - туман. В сухую погоду видимость может ухудшаться дымом, пылью или мглою.
Явления - указаны атмосферные явления, наблюдавшиеся в срок или в последний час перед сроком; фигурными скобками обозначены явления, наблюдавшиеся между сроками (за 1-3 часа до срока); квадратными скобками обозначены град или гололедные отложения с указанием их диаметра в мм.
Облачность - указаны через наклонную черту общая и нижняя облачность в баллах и высота нижней границы облаков в метрах; квадратными скобками обозначены формы облаков: Ci - перистые, Cs - перисто-слоистые, Cc - перисто-кучевые, Ac - высококучевые, As - высокослоистые, Sc - слоисто-кучевые, Ns - слоисто-дождевые, Cu - кучевые, Cb - кучево-дождевые. Подробнее классификацию облаков см. в Атласе облаков (PDF).
T - Температура воздуха - температура, измеренная на высоте 2 м над землей.
Td - Температура точки росы - температура, при понижении до которой содержащийся в воздухе водяной пар достигнет насыщения.
f - Относительная влажность воздуха - влажноcть воздуха, измеренная на высоте 2 м над землей.
Te - Эффективная температура - температура, которую ощущает одетый по сезону человек в тени. Характеристика душности погоды. При расчете учитывается влияние влажности воздуха и скорости ветра на теплоощущения человека.
Tes - Эффективная температура на солнце - температура, которую ощущает человек, с поправкой на солнечный нагрев. Характеристика знойности погоды. Зависит от высоты солнца над горизонтом, облачности и скорости ветра. Ночью, в пасмурную погоду, а также при ветре 12 м/с и более поправка равна нулю.
P - Атмосферное давление - приведенное к уровню моря атмосферное давление.
Po - Атмосферное давление - измеренное на уровне метеостанции атмосферное давление.
Tmin - Минимальная температура - минимум температуры воздуха на высоте 2 м над землей.
Tmax - Максимальная температура - максимум температуры воздуха на высоте 2 м над землей.
R - Количество осадков - Количество выпавших осадков за период времени, мм. При наведении курсора мыши на число - период времени, за который выпало указанное количество осадков.
R24 - Количество осадков - Количество выпавших осадков за 24 часа, мм.
S - Снежный покров - Высота снежного покрова, см. При наведении курсора мыши на число - состояние снежного покрова и степень покрытия местности в баллах.